Regional Weather Roundup
Issued by NWS

Home | Current Version | Previous Version | Graphics & Text | Print | Product List | Glossary On
Versions: 1 2 3 4 5 6 7 8 9 10 11 12 13 14 15 16 17 18 19 20 21 22 23 24 25 26 27 28 29 30 31 32 33 34 35 36 37 38 39 40 41 42 43 44 45 46 47 48 49 50
000
ASUS45 KABQ 271610
RWRNM
NEW MEXICO REGIONAL WEATHER ROUNDUP
NATIONAL WEATHER SERVICE ALBUQUERQUE NM
1000 AM MDT WED MAY 27 2015

NOTE: "FAIR" MEANS FEW OR NO CLOUDS BELOW 12,000 FEET AGL WITH NO
       SIGNIFICANT WEATHER OR OBSTRUCTIONS TO VISION.

      THIS PRODUCT IS RELEASED AS TWO VERSIONS.  ONE VERSION NEAR
      THE TOP OF THE HOUR CONTAINING PRELIMINARY DATA FROM ALBUQUERQUE
      AND OTHER STATIONS.  A FINAL VERSION WITH ADDITIONAL DATA IS
      ISSUED ABOUT 10 MINUTES AFTER THE HOUR.

NMZ501-503-504-510>518-271700-
NORTHWEST PLATEAU/NORTHCENTRAL MOUNTAINS

CITY           SKY/WX    TMP DP  RH WIND       PRES   REMARKS
FARMINGTON     SUNNY     64  41  42 E10       30.16S
LOS ALAMOS     MOSUNNY   60  37  42 CALM      30.27S
SANTA FE       MOSUNNY   66  41  40 VRB3      30.21S
TAOS           MOSUNNY   61  37  41 CALM      30.25F
ANGEL FIRE     FAIR      56  41  55 NE6       30.31F

$$
NMZ402-403-502-505>509-271700-
WESTCENTRAL MOUNTAINS/SOUTHWEST MOUNTAINS

CITY           SKY/WX    TMP DP  RH WIND       PRES   REMARKS
GALLUP         SUNNY     63  38  39 CALM      30.21F
GRANTS         PTSUNNY   65  33  30 SE7       30.24F
SILVER CITY      N/A     73  25  16 CALM      30.18S

$$
NMZ407-409-411-412-271700-
SOUTHERN DESERTS

CITY           SKY/WX    TMP DP  RH WIND       PRES   REMARKS
LORDSBURG      FAIR      73  28  19 E5        30.10F
DEMING         CLOUDY    75  25  15 CALM      30.11S
LAS CRUCES     PTSUNNY   79  25  14 E3        30.12S
HOLLOMAN AFB   MOSUNNY   78  29  16 S7        30.09S
ALAMOGORDO     SUNNY     75  28  17 S6        30.11S
T OR C         MOSUNNY   74  35  24 VRB5      30.13S

$$
NMZ519>523-271700-
CENTRAL VALLEYS/CENTRAL HIGHLANDS

CITY           SKY/WX    TMP DP  RH WIND       PRES   REMARKS
ALBUQUERQUE    PTSUNNY   67  43  41 S5        30.18S
DOUBLE EAGLE   PTSUNNY   64  43  45 NE7       30.21S
MORIARTY ARPT  FAIR      64  41  41 S6        30.23S
CLINES CORNERS MOSUNNY   65  37  35 S9        30.25R
BELEN          NOT AVBL
SOCORRO        FAIR      68  38  33 N3        30.16S

$$
NMZ524>526-539-540-271700-
SOUTHCENTRAL MOUNTAINS

CITY           SKY/WX    TMP DP  RH WIND       PRES   REMARKS
RUIDOSO        PTSUNNY   68  27  21 SW9       30.28S

$$
NMZ527>531-271700-
NORTHEAST HIGHLANDS/NORTHEAST PLAINS

CITY           SKY/WX    TMP DP  RH WIND       PRES   REMARKS
LAS VEGAS      SUNNY     65  40  39 S10       30.25S
RATON          PTSUNNY   64  48  56 VRB3      30.19F
CLAYTON        SUNNY     69  53  56 S12       30.14F

$$
NMZ532>537-271700-
EASTCENTRAL PLAINS

CITY           SKY/WX    TMP DP  RH WIND       PRES   REMARKS
TUCUMCARI      SUNNY     74  52  46 CALM      30.10S
CANNON AFB     SUNNY     73  59  61 SW8       30.13S
CLOVIS AIRPORT SUNNY     72  59  64 S12         N/A

$$
NMZ028-029-538-271700-
SOUTHEAST PLAINS

CITY           SKY/WX    TMP DP  RH WIND       PRES   REMARKS
ROSWELL        MOSUNNY   77  49  37 S5        30.09S
CARLSBAD       MOSUNNY   76  64  66 SE12      30.08S
HOBBS          MOSUNNY   73  66  78 SE14      30.12F


$$



USA.gov is the U.S. government's official web portal to all federal, state and local government web resources and services.